Location: Bruderhein
(53.8035°N, 112.9265°W)
Time: 12:41:34
(UTC+00:00)

deb Agena D - Visible Passes

Search period start: 08 December 2023 00:00
Search period end: 18 December 2023 00:00
Orbit: 761 x 889 km, 99.8° (Epoch: 07 December)

Date Brightness Start Highest point End Pass type
(mag) Time Alt. Az. Time Alt. Az. Time Alt. Az.
08 Dec ? 12:43:53 10° ESE 12:48:46 31° NE 12:53:33 10° N visible
08 Dec ? 14:22:56 10° S 14:28:33 61° WSW 14:34:02 10° NNW visible
09 Dec ? 12:25:16 10° ESE 12:29:40 24° NE 12:34:00 10° N visible
09 Dec ? 14:03:32 10° SSE 14:09:12 83° WSW 14:14:46 10° NNW visible
10 Dec ? 12:06:50 10° E 12:10:38 19° NE 12:14:22 10° N visible
10 Dec ? 13:44:18 10° SSE 13:49:55 74° ENE 13:55:25 10° NNW visible
11 Dec ? 11:48:38 10° ENE 11:51:38 15° NE 11:54:35 10° N visible
11 Dec ? 13:25:12 10° SE 13:30:41 55° ENE 13:36:01 10° NNW visible
12 Dec ? 11:30:51 10° ENE 11:32:40 12° NE 11:34:29 10° NNE visible
12 Dec ? 13:06:15 10° SE 13:11:28 41° ENE 13:16:33 10° N visible
12 Dec ? 14:46:10 10° S 14:51:31 44° W 14:56:45 10° NNW visible
13 Dec ? 12:47:28 10° ESE 12:52:19 31° ENE 12:57:03 10° N visible
13 Dec ? 14:26:34 10° S 14:32:07 60° WSW 14:37:32 10° NNW visible
14 Dec ? 12:28:50 10° ESE 12:33:12 24° NE 12:37:28 10° N visible
14 Dec ? 14:07:09 10° SSE 14:12:45 82° WSW 14:18:13 10° NNW visible
15 Dec ? 12:10:24 10° E 12:14:07 19° NE 12:17:48 10° N visible
15 Dec ? 13:47:52 10° SSE 13:53:26 75° ENE 13:58:52 10° NNW visible
16 Dec ? 11:52:11 10° ENE 11:55:06 15° NE 11:57:59 10° NNE visible
16 Dec ? 13:28:46 10° SE 13:34:11 56° ENE 13:39:27 10° NNW visible
17 Dec ? 11:34:25 10° ENE 11:36:07 11° NE 11:37:49 10° NNE visible
17 Dec ? 13:09:48 10° SE 13:14:57 41° ENE 13:19:58 10° N visible
17 Dec ? 14:49:45 10° S 14:55:01 43° W 15:00:09 10° NNW visible
